TimeEEST,TemperatureF,Dew PointF,Humidity,Sea Level PressureIn,VisibilityMPH,Wind Direction,Wind SpeedMPH,Gust SpeedMPH,PrecipitationIn,Events,Conditions,WindDirDegrees,DateUTC
12:20 AM,60.8,30.2,31,30.04,-9999.0,North,3.5,-,N/A,,Clear,10,2012-09-29 21:20:00
12:50 AM,59.0,35.6,42,30.04,-9999.0,NE,6.9,-,N/A,,Clear,40,2012-09-29 21:50:00
1:20 AM,59.0,37.4,45,30.04,-9999.0,NNE,5.8,-,N/A,,Clear,20,2012-09-29 22:20:00
1:50 AM,57.2,32.0,38,30.04,-9999.0,NE,5.8,-,N/A,,Clear,40,2012-09-29 22:50:00
2:20 AM,57.2,32.0,38,30.04,-9999.0,NNE,6.9,-,N/A,,Clear,20,2012-09-29 23:20:00
3:20 AM,57.2,35.6,44,30.06,-9999.0,NNE,3.5,-,N/A,,Clear,20,2012-09-30 00:20:00
3:50 AM,55.4,35.6,47,30.06,-9999.0,NNE,3.5,-,N/A,,Clear,20,2012-09-30 00:50:00
4:20 AM,53.6,39.2,58,30.06,-9999.0,NNE,4.6,-,N/A,,Clear,20,2012-09-30 01:20:00
4:50 AM,55.4,32.0,41,30.06,-9999.0,NE,4.6,-,N/A,,Clear,40,2012-09-30 01:50:00
5:20 AM,55.4,32.0,41,30.06,-9999.0,NNE,5.8,-,N/A,,Clear,30,2012-09-30 02:20:00
5:50 AM,53.6,30.2,41,30.06,-9999.0,NNE,6.9,-,N/A,,Clear,20,2012-09-30 02:50:00
6:20 AM,53.6,32.0,44,30.09,-9999.0,NE,4.6,-,N/A,,Clear,40,2012-09-30 03:20:00
6:50 AM,55.4,39.2,54,30.09,-9999.0,NNW,3.5,-,N/A,,Clear,340,2012-09-30 03:50:00
7:20 AM,60.8,35.6,39,30.09,-9999.0,NNE,4.6,-,N/A,,Clear,30,2012-09-30 04:20:00
7:50 AM,64.4,33.8,32,30.09,-9999.0,Variable,1.2,-,N/A,,Clear,0,2012-09-30 04:50:00
8:20 AM,64.4,35.6,34,30.12,-9999.0,Variable,1.2,-,N/A,,Clear,0,2012-09-30 05:20:00
8:50 AM,68.0,35.6,30,30.12,-9999.0,Variable,2.3,-,N/A,,Clear,0,2012-09-30 05:50:00
9:20 AM,73.4,35.6,25,30.12,-9999.0,Variable,1.2,-,N/A,,Clear,0,2012-09-30 06:20:00
9:50 AM,78.8,33.8,20,30.12,-9999.0,Variable,2.3,-,N/A,,Clear,0,2012-09-30 06:50:00
10:20 AM,82.4,33.8,17,30.09,-9999.0,Variable,2.3,-,N/A,,Clear,0,2012-09-30 07:20:00
10:50 AM,84.2,32.0,15,30.09,-9999.0,West,3.5,-,N/A,,Clear,280,2012-09-30 07:50:00
11:20 AM,87.8,32.0,14,30.09,-9999.0,SSW,3.5,-,N/A,,Clear,200,2012-09-30 08:20:00
11:50 AM,87.8,30.2,13,30.09,-9999.0,West,4.6,-,N/A,,Clear,270,2012-09-30 08:50:00
12:20 PM,89.6,32.0,13,30.06,-9999.0,West,4.6,-,N/A,,Clear,270,2012-09-30 09:20:00
12:50 PM,91.4,30.2,11,30.06,-9999.0,Variable,5.8,-,N/A,,Clear,0,2012-09-30 09:50:00
1:20 PM,91.4,28.4,10,30.04,-9999.0,WSW,8.1,-,N/A,,Clear,250,2012-09-30 10:20:00
1:50 PM,93.2,26.6,9,30.04,-9999.0,West,4.6,-,N/A,,Clear,260,2012-09-30 10:50:00
2:20 PM,95.0,24.8,8,30.04,-9999.0,WSW,4.6,-,N/A,,Clear,240,2012-09-30 11:20:00
2:50 PM,95.0,26.6,9,30.01,-9999.0,Variable,4.6,-,N/A,,Clear,0,2012-09-30 11:50:00
3:20 PM,95.0,28.4,9,30.01,-9999.0,WSW,4.6,-,N/A,,Clear,240,2012-09-30 12:20:00
3:50 PM,95.0,26.6,9,30.01,-9999.0,WSW,5.8,-,N/A,,Clear,240,2012-09-30 12:50:00
4:20 PM,96.8,28.4,9,30.01,-9999.0,West,4.6,-,N/A,,Clear,260,2012-09-30 13:20:00
4:50 PM,95.0,28.4,9,30.01,-9999.0,WSW,4.6,-,N/A,,Clear,250,2012-09-30 13:50:00
5:20 PM,93.2,32.0,11,30.01,-9999.0,WSW,4.6,-,N/A,,Clear,250,2012-09-30 14:20:00
5:50 PM,89.6,32.0,13,30.01,-9999.0,WSW,3.5,-,N/A,,Clear,250,2012-09-30 14:50:00
6:20 PM,82.4,28.4,14,30.01,-9999.0,Calm,Calm,-,N/A,,Clear,0,2012-09-30 15:20:00
6:50 PM,82.4,30.2,15,30.01,-9999.0,Calm,Calm,-,N/A,,Clear,0,2012-09-30 15:50:00
7:20 PM,78.8,32.0,18,30.01,-9999.0,SSE,3.5,-,N/A,,Clear,150,2012-09-30 16:20:00
7:50 PM,75.2,33.8,22,30.04,-9999.0,Variable,1.2,-,N/A,,Clear,0,2012-09-30 16:50:00
8:20 PM,71.6,32.0,23,30.04,-9999.0,NNE,2.3,-,N/A,,Clear,20,2012-09-30 17:20:00
8:50 PM,71.6,30.2,22,30.04,-9999.0,North,4.6,-,N/A,,Clear,10,2012-09-30 17:50:00
9:20 PM,69.8,32.0,25,30.04,-9999.0,NNE,3.5,-,N/A,,Clear,30,2012-09-30 18:20:00
9:50 PM,69.8,30.2,23,30.04,-9999.0,Calm,Calm,-,N/A,,Clear,0,2012-09-30 18:50:00
10:20 PM,68.0,32.0,26,30.06,-9999.0,Calm,Calm,-,N/A,,Clear,0,2012-09-30 19:20:00
10:50 PM,64.4,37.4,37,30.06,-9999.0,North,4.6,-,N/A,,Clear,360,2012-09-30 19:50:00
11:20 PM,64.4,35.6,34,30.06,-9999.0,ENE,5.8,-,N/A,,Clear,60,2012-09-30 20:20:00
11:50 PM,62.6,32.0,32,30.06,-9999.0,ENE,2.3,-,N/A,,Clear,60,2012-09-30 20:50:00